Regional Weather Roundup
Issued by NWS

Home | Current Version | Previous Version | Graphics & Text | Print | Product List | Glossary On
Versions: 1 2 3 4 5 6 7 8 9 10 11 12 13 14 15 16 17 18 19 20 21 22 23 24 25 26 27 28 29 30 31 32 33 34 35 36 37 38 39 40 41 42 43 44 45 46 47 48 49 50
061
ASUS43 KMKX 261600
RWRWI

WISCONSIN REGIONAL WEATHER ROUNDUP
NATIONAL WEATHER SERVICE MILWAUKEE/SULLIVAN WI
1100 AM CDT MON SEP 26 2016

NOTE: "FAIR" INDICATES FEW OR NO CLOUDS BELOW 12,000 FEET WITH NO
SIGNIFICANT WEATHER AND/OR OBSTRUCTIONS TO VISIBILITY.

WIZ001-002-006>008-014>016-023>028-261700-
NORTHWEST WISCONSIN

CITY           SKY/WX    TMP DP  RH WIND       PRES   REMARKS
SUPERIOR ARPT  CLOUDY    53  44  72 W15       29.74S
ASHLAND        LGT RAIN  51  48  89 W17G25    29.70R
HAYWARD        CLOUDY    53  42  66 W12G22    29.77F
SIREN          MOSUNNY   56  39  54 W18G30    29.83S
CUMBERLAND     MOSUNNY   54  37  54 W24G32    29.83F
RICE LAKE      SUNNY     58  38  49 W17G24    29.85S
CHETEK         NOT AVBL
LADYSMITH      MOSUNNY   57  42  55 W18G29    29.81S
EAU CLAIRE     NOT AVBL
MENOMONIE      PTSUNNY   59  42  52 W18       29.88F
NEW RICHMOND   SUNNY     57  40  54 W22       29.88F
OSCEOLA        SUNNY     58  41  54 W23       29.91S
$$

WIZ003>005-009-010-017-018-261700-
NORTH CENTRAL WISCONSIN

CITY           SKY/WX    TMP DP  RH WIND       PRES   REMARKS
MANITOWISH WTR NOT AVBL
ARBOR VITAE    DRIZZLE   52  50  92 W12G23    29.71S
WOODRUFF       DRIZZLE   52  50  92 W12G23    29.71S
RHINELANDER    LGT RAIN  50  46  86 W21G32    29.74R
EAGLE RIVER    DRIZZLE   49  47  95 W14G22    29.69S
LAND O LAKES   DRIZZLE   49  47  92 W10G22    29.69S
PHILLIPS       CLOUDY    51  43  74 W9G28     29.75S
TOMAHAWK       CLOUDY    51  43  73 W13G24    29.76S
MEDFORD        PTSUNNY   55  42  61 W18G29    29.80S
MERRILL        PTSUNNY   54  45  71 W16G23    29.78S
$$

WIZ029-030-035-036-043>047-261700-
CENTRAL WISCONSIN

CITY           SKY/WX    TMP DP  RH WIND       PRES   REMARKS
WAUSAU         CLOUDY    57  42  57 W24G40    29.78F
MOSINEE        PTSUNNY   57  43  58 W25G33    29.81F
MARSHFIELD     MOSUNNY   58  40  51 W18G33    29.83F
STEVENS POINT  SUNNY     56  41  57 W17G25    29.83S
WAUPACA        SUNNY     61  43  51 W21G31    29.84S
WAUTOMA        SUNNY     61  42  49 W18G24    29.87F
WISC RAPIDS    SUNNY     60  43  53 W22G30    29.86F
CAMP DOUGLAS   NOT AVBL
$$

WIZ011>013-019>022-031-037>040-048>050-261700-
NORTHEAST WISCONSIN

CITY           SKY/WX    TMP DP  RH WIND       PRES   REMARKS
ANTIGO         CLOUDY    51  46  82 W15       29.76S
SHAWANO        CLOUDY    57  45  64 W14G23    29.79S
OCONTO         NOT AVBL
STURGEON BAY   CLOUDY    56  46  69 W22G29    29.76S
GREEN BAY      PTSUNNY   58  46  64 W18G25    29.80S
MANITOWOC      NOT AVBL
APPLETON       MOSUNNY   59  39  47 W26G36    29.82S
CLINTONVILLE   NOT AVBL
OSHKOSH        SUNNY     61  41  47 W16G31    29.83F
$$

WIZ032>034-041-042-053>061-261700-
SOUTHWEST WISCONSIN

CITY           SKY/WX    TMP DP  RH WIND       PRES   REMARKS
LA CROSSE      SUNNY     64  42  44 W17       29.94S
SPARTA         SUNNY     59  43  56 W13G18    29.93S
VIROQUA        SUNNY     58  40  50 W16G22    29.96S
BOSCOBEL       SUNNY     63  41  44 W12G21    29.99F
PRAIRIE DU CHI SUNNY     62  37  39 W14G22    30.00F
PLATTEVILLE    SUNNY     61  42  49 W20G25    30.02S
$$

WIZ056-057-062-063-064-067-068-261700-
SOUTH CENTRAL WISCONSIN

CITY           SKY/WX    TMP DP  RH WIND       PRES   REMARKS
REEDSBURG      NOT AVBL
BARABOO/DELLS  SUNNY     59  41  51 W14G21    29.93S
LONE ROCK      NOT AVBL
MINERAL POINT  SUNNY     61  41  48 W20G29    29.99S
MADISON        MOSUNNY   61  42  49 W10G20    29.94S
MIDDLETON      NOT AVBL
WATERTOWN      SUNNY     61  43  52 W16G25    29.92F
MONROE         SUNNY     59  39  47 W24G30    29.99S
JANESVILLE     SUNNY     63  43  48 W17G23    29.97F
$$

WIZ051-052-058>065-066-070>072-261700-
SOUTHEAST WISCONSIN

CITY           SKY/WX    TMP DP  RH WIND       PRES   REMARKS
MILWAUKEE      MOSUNNY   63  42  46 W21G29    29.93F
WAUKESHA       NOT AVBL
MILWAUKEE/TIMM SUNNY     61  41  48 W16G29    29.92F
RACINE         SUNNY     63  42  46 W15G31    29.95F
BURLINGTON     SUNNY     61  42  50 W15G26    29.95F
KENOSHA        SUNNY     62  44  51 W17G28    29.95F
FOND DU LAC    MOSUNNY   61  42  49 W20G32    29.86F
SHEBOYGAN      SUNNY     62  43  49 W22G36    29.85F
WEST BEND      SUNNY     59  43  55 W14G28    29.89F
JUNEAU         SUNNY     60  43  53 W22G29    29.92S
$$

LSZ147-162-261700-
LAKE SUPERIOR

STATION/POSITION TIME  TEMP    WIND        PRES    WAVE
                       AIR SEA DIR/SP/G            HT/PER
                 (UTC) (F)     (DEG/KT/KT) (MB)    (FT/S)
W MID LAKE BUOY  1450   54 56  260/ 29/ 33  999.5R   7/ 6
DEVILS ISLAND    1500   53     260/ 29/ 34 1003.0R
SAXON HARBOR     1500   51     240/ 10/ 16 1005.1S
$$

LMZ867-665-643>646-261700-
LAKE MICHIGAN

STATION/POSITION TIME  TEMP    WIND        PRES    WAVE
                       AIR SEA DIR/SP/G            HT/PER
                 (UTC) (F)     (DEG/KT/KT) (MB)    (FT/S)
CHAMBERS ISLAND  1500   56     230/  9/ 21 1006.4S
N MID LAKE BUOY  1450   58 67  250/ 25/ 29 1005.4F   6/ 6
NORTHPORT PIER   1500   58     250/  7/ 15 1006.8S
KEWAUNEE LAKESHO 1500   58     260/ 15/ 24 1008.6R
SHEBOYGAN LAKESH 1500   58     260/ 23/ 28 1010.8S
PORT WASHINGTON  1524   62     260/ 13/ 26 1012.5F
ATWATER BUOY     1500   60 55  250/ 17/ 23 1013.1R
MILWAUKEE LAKESH 1510   60     280/ 16/ 23   N/A
S MID LAKE BUOY  1450   61 71  250/ 21/ 25 1013.1R   5/ 5
KENOSHA   LAKESH 1500   60     270/ 15/ 19 1014.2S
$$

TC  - TEMPERATURE IN CELSIUS
VSB - VISIBILITY IN STATUTE MILES
WCI - WIND CHILL INDEX
HX  - HEAT INDEX





USA.gov is the U.S. government's official web portal to all federal, state and local government web resources and services.